Location: Snead
(33.5657°N, 82.1207°W)
Time: 01:14:37
(UTC+00:00)

Tiangong - Visible Passes

Search period start: 14 July 2024 00:00
Search period end: 24 July 2024 00:00
Orbit: 373 x 378 km, 41.5° (Epoch: 13 July)

Date Brightness Start Highest point End Pass type
(mag) Time Alt. Az. Time Alt. Az. Time Alt. Az.
14 Jul 0.2 07:58:44 24° NE 07:58:44 24° NE 08:00:09 10° ENE visible
14 Jul 0.1 09:31:38 10° WNW 09:34:04 21° N 09:36:31 10° NE visible
15 Jul -0.5 08:30:58 26° NNW 08:31:20 27° NNW 08:34:02 10° NE visible
16 Jul 1.2 07:31:08 13° NE 07:31:08 13° NE 07:31:34 10° NE visible
16 Jul 0.3 09:03:26 10° NW 09:05:44 19° N 09:08:01 10° NE visible
17 Jul 0.3 08:03:18 21° N 08:03:18 21° N 08:05:18 10° NE visible
17 Jul 0.4 09:37:42 10° NW 09:40:05 20° N 09:42:27 10° ENE visible
18 Jul 0.5 08:35:26 13° NW 08:37:05 18° N 08:39:21 10° NE visible
19 Jul 1.2 07:35:36 14° NNE 07:35:36 14° NNE 07:36:21 10° NE visible
19 Jul 0.2 09:08:43 10° NW 09:11:16 23° NNE 09:13:50 10° ENE visible
20 Jul 0.4 08:07:53 19° N 08:08:10 19° N 08:10:30 10° NE visible
20 Jul -1.1 09:42:14 10° NW 09:45:14 46° NNE 09:48:13 10° E visible
21 Jul -0.2 08:40:21 17° NW 08:42:09 29° NNE 08:44:55 10° E visible
22 Jul 1.2 07:41:04 12° ENE 07:41:04 12° ENE 07:41:26 10° ENE visible
22 Jul -2.1 09:13:08 13° WNW 09:15:52 75° NNE 09:18:57 10° ESE visible
23 Jul 0.2 08:14:16 22° E 08:14:16 22° E 08:15:39 10° E visible
23 Jul -1.2 09:46:30 10° W 09:49:14 28° SW 09:51:56 10° SSE visible
